When you browse on this site, cookies collect data to enhance your experience and personalize the content and advertising you see.
Visit our Privacy Policy to learn more. By continuing to use the site, you agree to this use of cookies and data.
  • In Italy
  • List of Countries
  • For 7 days
  • Water Temperature
  • Satellite Maps
  • Weather Map
  • Weather Widgets
  • user-avatar
    Login

    Hourly Weather Annaba

    Today, 26 March, Tuesday

    Time Temperature Precipitation Wind Pressure Humidity
    00:00 +13°C° 0 mm 2 mps 761 mmHg 82%
    01:00 +13°C° 0 mm 2 mps 761 mmHg 83%
    02:00 +11°C° 0 mm 3 mps 761 mmHg 84%
    03:00 +11°C° 0 mm 3 mps 760 mmHg 85%
    04:00 +11°C° 0 mm 3 mps 760 mmHg 86%
    05:00 +11°C° 0 mm 3 mps 760 mmHg 86%
    06:00 +11°C° 0 mm 3 mps 760 mmHg 85%
    07:00 +11°C° 0 mm 3 mps 760 mmHg 85%
    08:00 +13°C° 0 mm 4 mps 760 mmHg 79%
    09:00 +14°C° 0 mm 5 mps 760 mmHg 73%
    10:00 +16°C° 0 mm 5 mps 760 mmHg 67%
    11:00 +16°C° 0 mm 6 mps 760 mmHg 65%
    12:00 +16°C° 0 mm 7 mps 760 mmHg 62%
    13:00 +17°C° 0 mm 7 mps 760 mmHg 59%
    14:00 +16°C° 0 mm 8 mps 760 mmHg 60%
    15:00 +16°C° 0 mm 8 mps 760 mmHg 61%
    16:00 +15°C° 0 mm 8 mps 760 mmHg 62%
    17:00 +13°C° 0 mm 8 mps 760 mmHg 65%
    18:00 +12°C° 0 mm 8 mps 760 mmHg 67%
    19:00 +11°C° 0 mm 8 mps 760 mmHg 70%
    20:00 +10°C° 0 mm 7 mps 761 mmHg 72%
    21:00 +10°C° 0 mm 7 mps 762 mmHg 73%
    22:00 +10°C° 0 mm 6 mps 762 mmHg 74%
    23:00 +10°C° 0 mm 6 mps 762 mmHg 73%

    Tomorrow, 27 March, Wednesday

    Time Temperature Precipitation Wind Pressure Humidity
    00:00 +10°C° 0 mm 6 mps 762 mmHg 72%
    01:00 +10°C° 0 mm 5 mps 763 mmHg 71%
    02:00 +9°C° 0.1 mm 5 mps 762 mmHg 74%
    03:00 +9°C° 0.1 mm 5 mps 762 mmHg 77%
    04:00 +8°C° 0.1 mm 4 mps 762 mmHg 80%
    05:00 +8°C° 0 mm 4 mps 762 mmHg 79%
    06:00 +8°C° 0 mm 4 mps 762 mmHg 77%
    07:00 +10°C° 0 mm 4 mps 762 mmHg 76%
    08:00 +11°C° 0 mm 3 mps 763 mmHg 75%
    09:00 +12°C° 0 mm 3 mps 763 mmHg 73%
    10:00 +13°C° 0 mm 3 mps 763 mmHg 72%
    11:00 +13°C° 0.1 mm 3 mps 763 mmHg 71%
    12:00 +13°C° 0.1 mm 3 mps 763 mmHg 71%
    13:00 +14°C° 0.1 mm 3 mps 763 mmHg 70%
    14:00 +14°C° 0.1 mm 3 mps 763 mmHg 70%
    15:00 +15°C° 0.1 mm 2 mps 763 mmHg 69%
    16:00 +15°C° 0.1 mm 2 mps 762 mmHg 69%
    17:00 +14°C° 0.1 mm 2 mps 763 mmHg 73%
    18:00 +13°C° 0.1 mm 1 mps 763 mmHg 77%
    19:00 +12°C° 0.1 mm 0 mps 764 mmHg 81%
    20:00 +12°C° 0.1 mm 1 mps 764 mmHg 83%
    21:00 +11°C° 0.1 mm 1 mps 765 mmHg 86%
    22:00 +11°C° 0.1 mm 1 mps 765 mmHg 88%
    23:00 +9°C° 0 mm 2 mps 765 mmHg 89%

    Day after tomorrow, 28 March, Thursday

    Time Temperature Precipitation Wind Pressure Humidity
    00:00 +9°C° 0 mm 2 mps 765 mmHg 90%
    01:00 +9°C° 0 mm 2 mps 765 mmHg 91%
    02:00 +9°C° 0 mm 2 mps 765 mmHg 91%
    03:00 +9°C° 0 mm 2 mps 765 mmHg 91%
    04:00 +8°C° 0 mm 2 mps 765 mmHg 91%
    05:00 +9°C° 0.1 mm 2 mps 765 mmHg 91%
    06:00 +9°C° 0.1 mm 2 mps 765 mmHg 90%
    07:00 +9°C° 0.1 mm 2 mps 766 mmHg 90%
    08:00 +10°C° 0.2 mm 2 mps 766 mmHg 87%
    09:00 +13°C° 0.2 mm 2 mps 766 mmHg 84%
    10:00 +14°C° 0.2 mm 1 mps 767 mmHg 81%
    11:00 +15°C° 0.3 mm 2 mps 766 mmHg 79%
    12:00 +15°C° 0.3 mm 2 mps 766 mmHg 76%
    13:00 +16°C° 0.3 mm 2 mps 766 mmHg 73%
    14:00 +16°C° 0.1 mm 2 mps 766 mmHg 72%
    15:00 +16°C° 0.1 mm 2 mps 766 mmHg 71%
    16:00 +16°C° 0.1 mm 3 mps 765 mmHg 70%
    17:00 +15°C° 0 mm 2 mps 766 mmHg 74%
    18:00 +14°C° 0 mm 2 mps 766 mmHg 77%
    19:00 +12°C° 0 mm 2 mps 766 mmHg 81%
    20:00 +12°C° 0 mm 1 mps 767 mmHg 82%
    21:00 +11°C° 0 mm 1 mps 767 mmHg 84%
    22:00 +10°C° 0 mm 1 mps 768 mmHg 85%
    23:00 +10°C° 0 mm 1 mps 768 mmHg 86%

    29 March, Friday

    Time Temperature Precipitation Wind Pressure Humidity
    00:00 +9°C° 0 mm 2 mps 768 mmHg 87%
    01:00 +8°C° 0 mm 2 mps 768 mmHg 88%
    02:00 +8°C° 0 mm 2 mps 768 mmHg 87%
    03:00 +8°C° 0 mm 2 mps 767 mmHg 87%
    04:00 +8°C° 0 mm 2 mps 767 mmHg 86%
    05:00 +8°C° 0 mm 2 mps 767 mmHg 85%
    06:00 +8°C° 0 mm 2 mps 768 mmHg 83%
    07:00 +8°C° 0 mm 2 mps 768 mmHg 82%
    08:00 +10°C° 0 mm 2 mps 768 mmHg 75%
    09:00 +14°C° 0 mm 1 mps 768 mmHg 68%
    10:00 +16°C° 0 mm 1 mps 768 mmHg 61%
    11:00 +18°C° 0 mm 1 mps 768 mmHg 58%
    12:00 +17°C° 0 mm 2 mps 767 mmHg 55%
    13:00 +18°C° 0 mm 2 mps 767 mmHg 52%
    14:00 +18°C° 0 mm 2 mps 767 mmHg 55%
    15:00 +18°C° 0 mm 3 mps 767 mmHg 57%
    16:00 +18°C° 0 mm 3 mps 766 mmHg 60%
    17:00 +16°C° 0 mm 3 mps 767 mmHg 67%
    18:00 +13°C° 0 mm 3 mps 767 mmHg 74%
    19:00 +12°C° 0 mm 3 mps 767 mmHg 80%
    20:00 +11°C° 0 mm 3 mps 767 mmHg 82%
    21:00 +12°C° 0 mm 2 mps 768 mmHg 84%
    22:00 +10°C° 0 mm 2 mps 768 mmHg 86%
    23:00 +10°C° 0 mm 2 mps 768 mmHg 87%

    30 March, Saturday

    Time Temperature Precipitation Wind Pressure Humidity
    00:00 +10°C° 0 mm 2 mps 768 mmHg 88%
    01:00 +9°C° 0 mm 2 mps 768 mmHg 89%
    02:00 +9°C° 0 mm 2 mps 768 mmHg 89%
    03:00 +9°C° 0 mm 2 mps 767 mmHg 89%
    04:00 +9°C° 0 mm 2 mps 767 mmHg 89%
    05:00 +9°C° 0 mm 2 mps 767 mmHg 88%
    06:00 +9°C° 0 mm 2 mps 767 mmHg 87%
    07:00 +10°C° 0 mm 2 mps 767 mmHg 87%
    08:00 +13°C° 0 mm 2 mps 767 mmHg 79%
    09:00 +15°C° 0 mm 2 mps 767 mmHg 71%
    10:00 +18°C° 0 mm 2 mps 767 mmHg 63%
    11:00 +19°C° 0 mm 2 mps 767 mmHg 60%
    12:00 +20°C° 0 mm 3 mps 766 mmHg 57%
    13:00 +21°C° 0 mm 3 mps 766 mmHg 54%
    14:00 +20°C° 0 mm 4 mps 765 mmHg 56%
    15:00 +20°C° 0 mm 4 mps 765 mmHg 58%
    16:00 +20°C° 0 mm 5 mps 764 mmHg 61%
    17:00 +18°C° 0 mm 4 mps 764 mmHg 68%
    18:00 +17°C° 0 mm 4 mps 764 mmHg 74%
    19:00 +14°C° 0 mm 3 mps 764 mmHg 81%
    20:00 +13°C° 0 mm 3 mps 764 mmHg 83%
    21:00 +14°C° 0 mm 2 mps 765 mmHg 85%
    22:00 +13°C° 0 mm 2 mps 765 mmHg 86%
    23:00 +13°C° 0 mm 2 mps 764 mmHg 86%

    31 March, Sunday

    Time Temperature Precipitation Wind Pressure Humidity
    00:00 +13°C° 0 mm 2 mps 764 mmHg 86%
    01:00 +12°C° 0 mm 1 mps 764 mmHg 86%
    02:00 +12°C° 0 mm 1 mps 763 mmHg 86%
    03:00 +12°C° 0 mm 2 mps 763 mmHg 85%
    04:00 +12°C° 0 mm 2 mps 762 mmHg 85%
    05:00 +12°C° 0 mm 2 mps 762 mmHg 84%
    06:00 +12°C° 0 mm 2 mps 762 mmHg 83%
    07:00 +12°C° 0 mm 2 mps 762 mmHg 81%
    08:00 +15°C° 0 mm 2 mps 762 mmHg 74%
    09:00 +17°C° 0 mm 2 mps 762 mmHg 67%
    10:00 +20°C° 0 mm 2 mps 761 mmHg 59%
    11:00 +21°C° 0 mm 2 mps 761 mmHg 58%
    12:00 +21°C° 0 mm 3 mps 760 mmHg 56%
    13:00 +22°C° 0 mm 3 mps 760 mmHg 54%
    14:00 +21°C° 0 mm 4 mps 759 mmHg 59%
    15:00 +20°C° 0 mm 4 mps 759 mmHg 64%
    16:00 +19°C° 0 mm 4 mps 759 mmHg 69%
    17:00 +18°C° 0 mm 4 mps 759 mmHg 73%
    18:00 +17°C° 0 mm 3 mps 759 mmHg 77%
    19:00 +16°C° 0 mm 3 mps 759 mmHg 81%
    20:00 +15°C° 0 mm 2 mps 759 mmHg 83%
    21:00 +15°C° 0 mm 2 mps 760 mmHg 85%
    22:00 +15°C° 0 mm 1 mps 760 mmHg 87%
    23:00 +15°C° 0 mm 1 mps 760 mmHg 87%
    Show more